KUIPER-00031

导读

KUIPER-00031是美国亚马逊柯伊伯(Kuiper)低轨互联网卫星星座的一员,于2025年4月28日由美国发射升空。该星座计划部署数千颗卫星,为全球提供高速宽带互联网接入服务。KUIPER-00031搭载先进相控阵天线,可灵活分配频率与通信容量,支持数据包路由交换,助力星座实现全球网络覆盖,推动卫星互联网技术发展。

基本信息
目录编号:
63744
目录名称:
KUIPER-00031
国际标识:
2025-088W
轨道中心:
EARTH
卫星名称:
KUIPER-00031
卫星全名:
KUIPER-00031
卫星状态:
在轨 (已飞行502 天)
发射日期:
2025-04-28 UTC
国别 :
美国 (US)
星等 :
--
该卫星已列入 空间交会检测服务 Space Conjunction Data Service (SCDS) ,当前飞行风险评估等级: 无高风险
轨道信息
数据来源 国际轨道数据 AOE轨道数据
星历时间 2026-09-11T19:15:01+0800
15小时前
查看轨道信息
2026-09-10T08:00:00+0800
2天前
查看轨道信息
半长轴 7007.695km 7007.686km
偏心率 0.000023 0.0000343
轨道倾角 51.904° 51.902°
近地点辐角 94.612° 97.816°
升交点赤经 354.072° 0.567°
平近点角 265.487° 352.414°
近地点 629.396km 629.308km
远地点 629.72km 629.79km
周期 97.302分钟 97.302分钟
每日圈数 14.799261 14.799289
详细信息
使用方式:
暂无
2D轨道图
3D轨道图
轨道高度分析图
轨道倾角分析图
轨道综合分析图
查看轨道综合分析图
与全量物体交会距离演化趋势
与全量物体交会风险概率演化趋势